Time,TemperatureF,DewpointF,PressureIn,WindDirection,WindDirectionDegrees,WindSpeedMPH,WindSpeedGustMPH,Humidity,HourlyPrecipIn,Conditions,Clouds,dailyrainin,SoftwareType,DateUTC
2013-01-16 00:03:00,28.2,25.9,30.22,West,270,0.0,0.0,91,0.00,,,0.00,LWC V2.10 B1813,2013-01-16 05:03:00,
2013-01-16 00:08:00,28.2,25.9,30.21,West,270,0.0,0.0,91,0.00,,,0.00,LWC V2.10 B1813,2013-01-16 05:08:00,
2013-01-16 00:13:00,28.2,25.9,30.20,West,270,0.0,0.0,91,0.00,,,0.00,LWC V2.10 B1813,2013-01-16 05:13:00,
2013-01-16 00:18:00,28.2,25.9,30.20,West,270,0.0,0.0,91,0.00,,,0.00,LWC V2.10 B1813,2013-01-16 05:18:00,
2013-01-16 00:23:00,28.1,25.8,30.21,West,270,0.0,1.0,91,0.00,,,0.00,LWC V2.10 B1813,2013-01-16 05:23:00,
2013-01-16 00:28:00,28.3,26.0,30.21,West,270,0.0,0.0,91,0.00,,,0.00,LWC V2.10 B1813,2013-01-16 05:28:00,
2013-01-16 00:33:00,28.4,26.1,30.21,West,270,0.0,0.0,91,0.00,,,0.00,LWC V2.10 B1813,2013-01-16 05:33:00,
2013-01-16 00:38:00,28.4,26.1,30.22,West,270,0.0,0.0,91,0.00,,,0.00,LWC V2.10 B1813,2013-01-16 05:38:00,
2013-01-16 00:43:00,28.6,26.0,30.22,West,270,0.0,0.0,90,0.00,,,0.00,LWC V2.10 B1813,2013-01-16 05:43:00,
2013-01-16 00:48:00,28.6,26.0,30.22,West,270,0.0,0.0,90,0.00,,,0.00,LWC V2.10 B1813,2013-01-16 05:48:00,
2013-01-16 00:53:00,28.5,25.9,30.21,West,270,0.0,0.0,90,0.00,,,0.00,LWC V2.10 B1813,2013-01-16 05:53:00,
2013-01-16 00:58:00,28.6,26.3,30.22,West,270,0.0,0.0,91,0.00,,,0.00,LWC V2.10 B1813,2013-01-16 05:58:00,
2013-01-16 01:03:00,28.6,26.3,30.21,West,270,0.0,0.0,91,0.00,,,0.00,LWC V2.10 B1813,2013-01-16 06:03:00,
2013-01-16 01:08:00,28.6,26.3,30.21,West,270,0.0,0.0,91,0.00,,,0.00,LWC V2.10 B1813,2013-01-16 06:08:00,
2013-01-16 01:13:00,28.6,26.3,30.20,West,270,0.0,0.0,91,0.00,,,0.00,LWC V2.10 B1813,2013-01-16 06:13:00,
2013-01-16 01:18:00,28.7,26.4,30.20,West,270,0.0,0.0,91,0.00,,,0.00,LWC V2.10 B1813,2013-01-16 06:18:00,
2013-01-16 01:23:00,28.7,26.4,30.19,West,270,0.0,0.0,91,0.00,,,0.00,LWC V2.10 B1813,2013-01-16 06:23:00,
2013-01-16 01:28:00,28.6,26.3,30.19,West,270,0.0,0.0,91,0.00,,,0.00,LWC V2.10 B1813,2013-01-16 06:28:00,
2013-01-16 01:33:00,28.7,26.4,30.19,West,270,0.0,0.0,91,0.00,,,0.00,LWC V2.10 B1813,2013-01-16 06:33:00,
2013-01-16 01:38:00,28.7,26.4,30.19,West,270,0.0,0.0,91,0.00,,,0.00,LWC V2.10 B1813,2013-01-16 06:38:00,
2013-01-16 01:43:00,28.7,26.4,30.19,West,270,0.0,0.0,91,0.00,,,0.00,LWC V2.10 B1813,2013-01-16 06:43:00,
2013-01-16 01:48:00,28.7,26.4,30.19,West,270,0.0,0.0,91,0.00,,,0.00,LWC V2.10 B1813,2013-01-16 06:48:00,
2013-01-16 01:53:00,28.8,26.5,30.20,West,270,0.0,0.0,91,0.00,,,0.00,LWC V2.10 B1813,2013-01-16 06:53:00,
2013-01-16 01:58:00,28.8,26.5,30.20,West,270,0.0,0.0,91,0.00,,,0.00,LWC V2.10 B1813,2013-01-16 06:58:00,
2013-01-16 02:03:00,28.9,26.6,30.20,West,270,0.0,0.0,91,0.00,,,0.00,LWC V2.10 B1813,2013-01-16 07:03:00,
2013-01-16 02:08:00,28.9,26.6,30.20,West,270,0.0,0.0,91,0.00,,,0.00,LWC V2.10 B1813,2013-01-16 07:08:00,
2013-01-16 02:13:00,28.9,26.3,30.20,West,270,0.0,0.0,90,0.00,,,0.00,LWC V2.10 B1813,2013-01-16 07:13:00,
2013-01-16 02:18:00,28.9,26.6,30.20,West,270,0.0,0.0,91,0.00,,,0.00,LWC V2.10 B1813,2013-01-16 07:18:00,
2013-01-16 02:23:00,28.9,26.6,30.20,West,270,0.0,0.0,91,0.00,,,0.00,LWC V2.10 B1813,2013-01-16 07:23:00,
2013-01-16 02:28:00,29.0,26.7,30.21,West,270,0.0,0.0,91,0.00,,,0.00,LWC V2.10 B1813,2013-01-16 07:28:00,
2013-01-16 02:33:00,29.0,26.7,30.21,West,270,0.0,0.0,91,0.00,,,0.00,LWC V2.10 B1813,2013-01-16 07:33:00,
2013-01-16 02:38:00,29.0,26.7,30.20,West,270,0.0,0.0,91,0.00,,,0.00,LWC V2.10 B1813,2013-01-16 07:38:00,
2013-01-16 02:43:00,29.0,26.7,30.21,West,270,0.0,0.0,91,0.00,,,0.00,LWC V2.10 B1813,2013-01-16 07:43:00,
2013-01-16 02:48:00,29.0,26.7,30.20,West,270,0.0,0.0,91,0.00,,,0.00,LWC V2.10 B1813,2013-01-16 07:48:00,
2013-01-16 02:53:00,29.0,26.7,30.20,West,270,0.0,0.0,91,0.00,,,0.00,LWC V2.10 B1813,2013-01-16 07:53:00,
2013-01-16 02:58:00,29.0,26.7,30.19,West,270,0.0,0.0,91,0.00,,,0.00,LWC V2.10 B1813,2013-01-16 07:58:00,
2013-01-16 03:03:00,29.0,26.7,30.18,West,270,0.0,0.0,91,0.00,,,0.00,LWC V2.10 B1813,2013-01-16 08:03:00,
2013-01-16 03:08:00,29.1,27.1,30.18,West,270,0.0,0.0,92,0.00,,,0.00,LWC V2.10 B1813,2013-01-16 08:08:00,
2013-01-16 03:13:00,29.1,27.1,30.17,West,270,0.0,0.0,92,0.00,,,0.00,LWC V2.10 B1813,2013-01-16 08:13:00,
2013-01-16 03:18:00,29.1,27.1,30.17,West,270,0.0,0.0,92,0.00,,,0.00,LWC V2.10 B1813,2013-01-16 08:18:00,
2013-01-16 03:23:00,29.1,27.1,30.17,West,270,0.0,0.0,92,0.00,,,0.00,LWC V2.10 B1813,2013-01-16 08:23:00,
2013-01-16 03:28:00,29.0,27.0,30.17,West,270,0.0,0.0,92,0.00,,,0.00,LWC V2.10 B1813,2013-01-16 08:28:00,
2013-01-16 03:33:00,29.1,27.1,30.16,West,270,0.0,0.0,92,0.00,,,0.00,LWC V2.10 B1813,2013-01-16 08:33:00,
2013-01-16 03:38:00,29.1,27.1,30.15,West,270,0.0,0.0,92,0.00,,,0.00,LWC V2.10 B1813,2013-01-16 08:38:00,
2013-01-16 03:43:00,29.1,27.1,30.15,West,270,0.0,0.0,92,0.00,,,0.00,LWC V2.10 B1813,2013-01-16 08:43:00,
2013-01-16 03:48:00,29.1,26.8,30.15,West,270,0.0,0.0,91,0.00,,,0.00,LWC V2.10 B1813,2013-01-16 08:48:00,
2013-01-16 03:53:00,29.1,26.8,30.15,West,270,0.0,0.0,91,0.00,,,0.00,LWC V2.10 B1813,2013-01-16 08:53:00,
2013-01-16 03:58:00,29.1,26.8,30.15,West,270,0.0,0.0,91,0.00,,,0.00,LWC V2.10 B1813,2013-01-16 08:58:00,
2013-01-16 04:03:00,29.2,26.9,30.15,West,270,0.0,0.0,91,0.00,,,0.00,LWC V2.10 B1813,2013-01-16 09:03:00,
2013-01-16 04:08:00,29.2,27.2,30.15,West,270,0.0,0.0,92,0.00,,,0.00,LWC V2.10 B1813,2013-01-16 09:08:00,
2013-01-16 04:13:00,29.2,27.2,30.14,West,270,0.0,0.0,92,0.00,,,0.00,LWC V2.10 B1813,2013-01-16 09:13:00,
2013-01-16 04:18:00,29.2,27.2,30.15,West,270,0.0,0.0,92,0.00,,,0.00,LWC V2.10 B1813,2013-01-16 09:18:00,
2013-01-16 04:23:00,29.1,27.1,30.14,West,270,0.0,0.0,92,0.00,,,0.00,LWC V2.10 B1813,2013-01-16 09:23:00,
2013-01-16 04:28:00,29.0,27.2,30.14,West,270,0.0,0.0,93,0.00,,,0.00,LWC V2.10 B1813,2013-01-16 09:28:00,
2013-01-16 04:33:00,29.0,27.2,30.13,West,270,0.0,0.0,93,0.00,,,0.00,LWC V2.10 B1813,2013-01-16 09:33:00,
2013-01-16 04:38:00,28.9,27.1,30.12,West,270,0.0,0.0,93,0.00,,,0.00,LWC V2.10 B1813,2013-01-16 09:38:00,
2013-01-16 04:43:00,28.8,27.3,30.11,West,270,0.0,0.0,94,0.00,,,0.00,LWC V2.10 B1813,2013-01-16 09:43:00,
2013-01-16 04:48:00,28.8,27.3,30.12,West,270,0.0,0.0,94,0.00,,,0.00,LWC V2.10 B1813,2013-01-16 09:48:00,
2013-01-16 04:53:00,28.7,27.2,30.13,West,270,0.0,0.0,94,0.00,,,0.00,LWC V2.10 B1813,2013-01-16 09:53:00,
2013-01-16 04:58:00,28.7,27.2,30.13,West,270,0.0,0.0,94,0.00,,,0.00,LWC V2.10 B1813,2013-01-16 09:58:00,
2013-01-16 05:03:00,28.6,27.4,30.12,West,270,0.0,0.0,95,0.00,,,0.00,LWC V2.10 B1813,2013-01-16 10:03:00,
2013-01-16 05:08:00,28.6,27.4,30.12,West,270,0.0,0.0,95,0.00,,,0.00,LWC V2.10 B1813,2013-01-16 10:08:00,
2013-01-16 05:13:00,28.6,27.4,30.12,West,270,0.0,0.0,95,0.00,,,0.00,LWC V2.10 B1813,2013-01-16 10:13:00,
2013-01-16 05:18:00,28.6,27.4,30.11,West,270,0.0,0.0,95,0.00,,,0.00,LWC V2.10 B1813,2013-01-16 10:18:00,
2013-01-16 05:23:00,28.6,27.4,30.11,West,270,0.0,0.0,95,0.00,,,0.00,LWC V2.10 B1813,2013-01-16 10:23:00,
2013-01-16 05:28:00,28.5,27.3,30.11,West,270,0.0,0.0,95,0.00,,,0.00,LWC V2.10 B1813,2013-01-16 10:28:00,
2013-01-16 05:33:00,28.5,27.3,30.11,West,270,0.0,0.0,95,0.00,,,0.00,LWC V2.10 B1813,2013-01-16 10:33:00,
2013-01-16 05:38:00,28.5,27.3,30.10,West,270,0.0,0.0,95,0.00,,,0.00,LWC V2.10 B1813,2013-01-16 10:38:00,
2013-01-16 05:43:00,28.5,27.3,30.11,West,270,0.0,0.0,95,0.00,,,0.00,LWC V2.10 B1813,2013-01-16 10:43:00,
2013-01-16 05:48:00,28.5,27.3,30.11,West,270,0.0,0.0,95,0.00,,,0.00,LWC V2.10 B1813,2013-01-16 10:48:00,
2013-01-16 05:53:00,28.5,27.5,30.09,ESE,118,0.0,0.0,96,0.00,,,0.00,LWC V2.10 B1813,2013-01-16 10:53:00,
2013-01-16 05:58:00,28.5,27.5,30.09,ESE,118,0.0,0.0,96,0.00,,,0.00,LWC V2.10 B1813,2013-01-16 10:58:00,
2013-01-16 06:03:00,28.5,27.5,30.09,ESE,118,0.0,0.0,96,0.00,,,0.00,LWC V2.10 B1813,2013-01-16 11:03:00,
2013-01-16 06:08:00,28.5,27.5,30.09,ESE,118,0.0,0.0,96,0.00,,,0.00,LWC V2.10 B1813,2013-01-16 11:08:00,
2013-01-16 06:13:00,28.5,27.5,30.10,ESE,119,0.0,0.0,96,0.00,,,0.00,LWC V2.10 B1813,2013-01-16 11:13:00,
2013-01-16 06:18:00,28.4,27.4,30.10,ESE,118,0.0,0.0,96,0.00,,,0.00,LWC V2.10 B1813,2013-01-16 11:18:00,
2013-01-16 06:23:00,28.5,27.5,30.10,ESE,118,0.0,0.0,96,0.00,,,0.00,LWC V2.10 B1813,2013-01-16 11:23:00,
2013-01-16 06:28:00,28.4,27.4,30.10,ESE,119,0.0,0.0,96,0.00,,,0.00,LWC V2.10 B1813,2013-01-16 11:28:00,
2013-01-16 06:33:00,28.5,27.5,30.10,ESE,118,0.0,0.0,96,0.00,,,0.00,LWC V2.10 B1813,2013-01-16 11:33:00,
2013-01-16 06:38:00,28.4,27.4,30.09,ESE,118,0.0,0.0,96,0.00,,,0.00,LWC V2.10 B1813,2013-01-16 11:38:00,
2013-01-16 06:43:00,28.5,27.5,30.10,ESE,119,0.0,0.0,96,0.00,,,0.00,LWC V2.10 B1813,2013-01-16 11:43:00,
2013-01-16 06:48:00,28.5,27.5,30.10,ESE,118,0.0,0.0,96,0.00,,,0.00,LWC V2.10 B1813,2013-01-16 11:48:00,
2013-01-16 06:53:00,28.5,27.5,30.10,ESE,118,0.0,0.0,96,0.00,,,0.00,LWC V2.10 B1813,2013-01-16 11:53:00,
2013-01-16 06:58:00,28.5,27.5,30.09,ESE,119,0.0,0.0,96,0.00,,,0.00,LWC V2.10 B1813,2013-01-16 11:58:00,
2013-01-16 07:03:00,28.5,27.5,30.09,ESE,118,0.0,0.0,96,0.00,,,0.00,LWC V2.10 B1813,2013-01-16 12:03:00,
2013-01-16 07:08:00,28.5,27.5,30.09,ESE,118,0.0,0.0,96,0.00,,,0.00,LWC V2.10 B1813,2013-01-16 12:08:00,
2013-01-16 07:13:00,28.5,27.5,30.08,ESE,118,0.0,0.0,96,0.00,,,0.00,LWC V2.10 B1813,2013-01-16 12:13:00,
2013-01-16 07:18:00,28.5,27.5,30.08,ESE,119,0.0,0.0,96,0.00,,,0.00,LWC V2.10 B1813,2013-01-16 12:18:00,
2013-01-16 07:23:00,28.5,27.5,30.08,ESE,118,0.0,0.0,96,0.00,,,0.00,LWC V2.10 B1813,2013-01-16 12:23:00,
2013-01-16 07:28:00,28.5,27.5,30.08,ESE,118,0.0,0.0,96,0.00,,,0.00,LWC V2.10 B1813,2013-01-16 12:28:00,
2013-01-16 07:33:00,28.5,27.5,30.08,ESE,118,0.0,0.0,96,0.00,,,0.00,LWC V2.10 B1813,2013-01-16 12:33:00,
2013-01-16 07:38:00,28.4,27.4,30.07,ESE,118,0.0,0.0,96,0.00,,,0.00,LWC V2.10 B1813,2013-01-16 12:38:00,
2013-01-16 07:43:00,28.4,27.4,30.07,ESE,118,0.0,0.0,96,0.00,,,0.00,LWC V2.10 B1813,2013-01-16 12:43:00,
2013-01-16 07:48:00,28.5,27.5,30.07,ESE,118,0.0,0.0,96,0.00,,,0.00,LWC V2.10 B1813,2013-01-16 12:48:00,
2013-01-16 07:53:00,28.5,27.5,30.07,ESE,118,0.0,0.0,96,0.00,,,0.00,LWC V2.10 B1813,2013-01-16 12:53:00,
2013-01-16 07:58:00,28.6,27.9,30.07,ESE,119,0.0,0.0,97,0.00,,,0.00,LWC V2.10 B1813,2013-01-16 12:58:00,
2013-01-16 08:03:00,28.6,27.9,30.08,NNE,20,0.0,0.0,97,0.00,,,0.00,LWC V2.10 B1813,2013-01-16 13:03:00,
2013-01-16 08:08:00,28.6,27.9,30.07,NNE,20,0.0,0.0,97,0.00,,,0.00,LWC V2.10 B1813,2013-01-16 13:08:00,
2013-01-16 08:13:00,28.7,28.0,30.07,NNE,20,0.0,0.0,97,0.00,,,0.00,LWC V2.10 B1813,2013-01-16 13:13:00,
2013-01-16 08:18:00,28.7,28.0,30.06,NNE,19,0.0,0.0,97,0.00,,,0.00,LWC V2.10 B1813,2013-01-16 13:18:00,
2013-01-16 08:23:00,28.7,27.7,30.07,NNE,20,0.0,0.0,96,0.00,,,0.00,LWC V2.10 B1813,2013-01-16 13:23:00,
2013-01-16 08:28:00,28.7,27.7,30.06,NNE,21,0.0,0.0,96,0.00,,,0.00,LWC V2.10 B1813,2013-01-16 13:28:00,
2013-01-16 08:33:00,28.8,27.8,30.06,NNE,16,0.0,0.0,96,0.00,,,0.00,LWC V2.10 B1813,2013-01-16 13:33:00,
2013-01-16 08:38:00,28.8,27.8,30.06,WNW,293,0.0,0.0,96,0.00,,,0.00,LWC V2.10 B1813,2013-01-16 13:38:00,
2013-01-16 08:43:00,28.8,27.8,30.05,WNW,302,0.0,0.0,96,0.00,,,0.00,LWC V2.10 B1813,2013-01-16 13:43:00,
2013-01-16 08:48:00,28.8,27.8,30.05,WNW,303,0.0,0.0,96,0.00,,,0.00,LWC V2.10 B1813,2013-01-16 13:48:00,
2013-01-16 08:53:00,28.9,27.9,30.05,WNW,302,0.0,0.0,96,0.00,,,0.00,LWC V2.10 B1813,2013-01-16 13:53:00,
2013-01-16 08:58:00,29.0,28.0,30.05,WNW,303,0.0,0.0,96,0.00,,,0.00,LWC V2.10 B1813,2013-01-16 13:58:00,
2013-01-16 09:03:00,29.2,28.2,30.04,WNW,303,0.0,0.0,96,0.00,,,0.00,LWC V2.10 B1813,2013-01-16 14:03:00,
2013-01-16 09:08:00,29.4,28.4,30.03,WNW,303,0.0,0.0,96,0.00,,,0.00,LWC V2.10 B1813,2013-01-16 14:08:00,
2013-01-16 09:13:00,29.5,28.5,30.03,NE,53,0.0,0.0,96,0.00,,,0.00,LWC V2.10 B1813,2013-01-16 14:13:00,
2013-01-16 09:18:00,29.6,28.6,30.03,NE,53,0.0,0.0,96,0.00,,,0.00,LWC V2.10 B1813,2013-01-16 14:18:00,
2013-01-16 09:23:00,29.8,28.8,30.03,NE,53,0.0,0.0,96,0.00,,,0.00,LWC V2.10 B1813,2013-01-16 14:23:00,
2013-01-16 09:28:00,29.9,28.6,30.01,ENE,58,0.0,0.0,95,0.00,,,0.00,LWC V2.10 B1813,2013-01-16 14:28:00,
2013-01-16 09:33:00,30.0,28.7,30.00,SSE,156,0.0,0.0,95,0.00,,,0.00,LWC V2.10 B1813,2013-01-16 14:33:00,
2013-01-16 09:38:00,29.8,28.3,29.99,SSE,166,0.0,0.0,94,0.00,,,0.00,LWC V2.10 B1813,2013-01-16 14:38:00,
2013-01-16 09:43:00,29.8,28.5,29.98,SE,141,0.0,0.0,95,0.00,,,0.00,LWC V2.10 B1813,2013-01-16 14:43:00,
2013-01-16 09:48:00,30.0,28.7,29.98,SE,142,0.0,0.0,95,0.00,,,0.00,LWC V2.10 B1813,2013-01-16 14:48:00,
2013-01-16 09:53:00,30.1,28.6,29.99,WNW,286,0.0,0.0,94,0.00,,,0.00,LWC V2.10 B1813,2013-01-16 14:53:00,
2013-01-16 09:58:00,30.1,28.6,30.00,WNW,287,0.0,0.0,94,0.00,,,0.00,LWC V2.10 B1813,2013-01-16 14:58:00,
2013-01-16 10:03:00,30.1,28.8,30.00,WNW,293,0.0,0.0,95,0.00,,,0.00,LWC V2.10 B1813,2013-01-16 15:03:00,
2013-01-16 10:08:00,30.1,28.6,30.00,WNW,298,0.0,0.0,94,0.00,,,0.00,LWC V2.10 B1813,2013-01-16 15:08:00,
2013-01-16 10:13:00,30.1,28.6,30.00,WNW,297,0.0,0.0,94,0.00,,,0.00,LWC V2.10 B1813,2013-01-16 15:13:00,
2013-01-16 10:18:00,30.2,28.9,30.01,WNW,297,0.0,0.0,95,0.00,,,0.00,LWC V2.10 B1813,2013-01-16 15:18:00,
2013-01-16 10:23:00,30.2,28.9,30.00,WNW,296,0.0,0.0,95,0.00,,,0.00,LWC V2.10 B1813,2013-01-16 15:23:00,
2013-01-16 10:28:00,30.4,29.1,30.00,WNW,296,0.0,0.0,95,0.00,,,0.00,LWC V2.10 B1813,2013-01-16 15:28:00,
2013-01-16 10:33:00,30.5,29.2,29.99,WNW,296,0.0,0.0,95,0.00,,,0.00,LWC V2.10 B1813,2013-01-16 15:33:00,
2013-01-16 10:38:00,30.7,29.4,29.99,WNW,296,0.0,0.0,95,0.00,,,0.00,LWC V2.10 B1813,2013-01-16 15:38:00,
2013-01-16 10:43:00,30.7,29.2,29.98,WNW,294,0.0,0.0,94,0.00,,,0.00,LWC V2.10 B1813,2013-01-16 15:43:00,
2013-01-16 10:48:00,30.6,29.1,29.96,ESE,118,0.0,1.0,94,0.00,,,0.00,LWC V2.10 B1813,2013-01-16 15:48:00,
2013-01-16 10:53:00,30.7,29.4,29.95,SE,130,0.0,0.0,95,0.00,,,0.00,LWC V2.10 B1813,2013-01-16 15:53:00,
2013-01-16 10:58:00,31.0,29.7,29.95,SE,130,0.0,0.0,95,0.00,,,0.00,LWC V2.10 B1813,2013-01-16 15:58:00,
2013-01-16 11:03:00,31.2,29.9,29.95,East,100,0.0,0.0,95,0.00,,,0.00,LWC V2.10 B1813,2013-01-16 16:03:00,
2013-01-16 11:08:00,31.1,29.6,29.95,East,101,0.0,0.0,94,0.00,,,0.00,LWC V2.10 B1813,2013-01-16 16:08:00,
2013-01-16 11:13:00,31.4,29.9,29.94,East,100,0.0,0.0,94,0.00,,,0.00,LWC V2.10 B1813,2013-01-16 16:13:00,
2013-01-16 11:18:00,31.5,29.7,29.94,East,99,0.0,0.0,93,0.00,,,0.00,LWC V2.10 B1813,2013-01-16 16:18:00,
2013-01-16 11:23:00,31.4,29.6,29.94,East,99,0.0,0.0,93,0.00,,,0.00,LWC V2.10 B1813,2013-01-16 16:23:00,
2013-01-16 11:28:00,31.5,29.7,29.93,East,99,0.0,0.0,93,0.00,,,0.00,LWC V2.10 B1813,2013-01-16 16:28:00,
2013-01-16 11:33:00,31.5,29.7,29.93,East,99,0.0,0.0,93,0.00,,,0.00,LWC V2.10 B1813,2013-01-16 16:33:00,
2013-01-16 11:38:00,31.6,29.8,29.92,East,99,0.0,0.0,93,0.00,,,0.00,LWC V2.10 B1813,2013-01-16 16:38:00,
2013-01-16 11:43:00,31.5,29.7,29.92,NNE,26,0.0,0.0,93,0.00,,,0.00,LWC V2.10 B1813,2013-01-16 16:43:00,
2013-01-16 11:48:00,31.5,29.7,29.92,NNE,16,0.0,0.0,93,0.00,,,0.00,LWC V2.10 B1813,2013-01-16 16:48:00,
2013-01-16 11:53:00,31.4,29.6,29.92,NNE,13,1.0,1.0,93,0.00,,,0.00,LWC V2.10 B1813,2013-01-16 16:53:00,
2013-01-16 11:58:00,31.3,29.8,29.92,NNE,13,0.0,0.0,94,0.00,,,0.00,LWC V2.10 B1813,2013-01-16 16:58:00,
2013-01-16 12:03:00,31.4,29.9,29.92,NNE,13,0.0,0.0,94,0.00,,,0.00,LWC V2.10 B1813,2013-01-16 17:03:00,
2013-01-16 12:08:00,31.4,29.9,29.92,NNE,13,0.0,0.0,94,0.00,,,0.00,LWC V2.10 B1813,2013-01-16 17:08:00,
2013-01-16 12:13:00,31.4,29.9,29.91,NNE,12,0.0,0.0,94,0.00,,,0.00,LWC V2.10 B1813,2013-01-16 17:13:00,
2013-01-16 12:18:00,31.7,30.2,29.91,NNE,12,0.0,0.0,94,0.00,,,0.00,LWC V2.10 B1813,2013-01-16 17:18:00,
2013-01-16 12:23:00,31.8,30.3,29.91,NNE,14,0.0,0.0,94,0.00,,,0.00,LWC V2.10 B1813,2013-01-16 17:23:00,
2013-01-16 12:28:00,31.9,30.4,29.91,NNE,14,0.0,0.0,94,0.00,,,0.00,LWC V2.10 B1813,2013-01-16 17:28:00,
2013-01-16 12:33:00,32.0,30.2,29.91,NNE,14,0.0,0.0,93,0.00,,,0.00,LWC V2.10 B1813,2013-01-16 17:33:00,
2013-01-16 12:38:00,32.0,30.2,29.91,NNE,14,0.0,0.0,93,0.00,,,0.00,LWC V2.10 B1813,2013-01-16 17:38:00,
2013-01-16 12:43:00,32.1,30.6,29.91,NNE,14,0.0,0.0,94,0.00,,,0.00,LWC V2.10 B1813,2013-01-16 17:43:00,
2013-01-16 12:48:00,32.3,30.8,29.91,NNE,14,0.0,0.0,94,0.00,,,0.00,LWC V2.10 B1813,2013-01-16 17:48:00,
2013-01-16 12:53:00,32.3,30.5,29.90,NNE,14,0.0,0.0,93,0.00,,,0.00,LWC V2.10 B1813,2013-01-16 17:53:00,
2013-01-16 12:58:00,31.9,30.1,29.88,ESE,121,1.0,2.0,93,0.00,,,0.00,LWC V2.10 B1813,2013-01-16 17:58:00,
2013-01-16 13:03:00,31.7,30.2,29.88,SE,142,0.0,0.0,94,0.00,,,0.00,LWC V2.10 B1813,2013-01-16 18:03:00,
2013-01-16 13:08:00,31.9,30.6,29.89,SE,141,0.0,0.0,95,0.00,,,0.00,LWC V2.10 B1813,2013-01-16 18:08:00,
2013-01-16 13:13:00,31.8,30.3,29.89,SE,141,0.0,0.0,94,0.00,,,0.00,LWC V2.10 B1813,2013-01-16 18:13:00,
2013-01-16 13:18:00,32.1,30.6,29.88,SE,141,0.0,0.0,94,0.00,,,0.00,LWC V2.10 B1813,2013-01-16 18:18:00,
2013-01-16 13:23:00,32.3,30.8,29.86,SE,141,0.0,0.0,94,0.00,,,0.00,LWC V2.10 B1813,2013-01-16 18:23:00,
2013-01-16 13:28:00,32.0,30.2,29.83,ESE,116,0.0,0.0,93,0.00,,,0.00,LWC V2.10 B1813,2013-01-16 18:28:00,
2013-01-16 13:33:00,31.7,30.2,29.81,ESE,111,0.0,2.0,94,0.00,,,0.00,LWC V2.10 B1813,2013-01-16 18:33:00,
2013-01-16 13:38:00,31.8,30.5,29.82,ESE,109,0.0,0.0,95,0.00,,,0.00,LWC V2.10 B1813,2013-01-16 18:38:00,
2013-01-16 13:43:00,32.1,30.8,29.83,ESE,109,0.0,0.0,95,0.00,,,0.00,LWC V2.10 B1813,2013-01-16 18:43:00,
2013-01-16 13:48:00,32.3,30.8,29.83,SSW,213,0.0,0.0,94,0.00,,,0.00,LWC V2.10 B1813,2013-01-16 18:48:00,
2013-01-16 13:53:00,32.2,30.7,29.82,SSW,213,0.0,0.0,94,0.00,,,0.00,LWC V2.10 B1813,2013-01-16 18:53:00,
2013-01-16 13:58:00,31.9,30.1,29.84,NW,309,0.0,2.0,93,0.00,,,0.00,LWC V2.10 B1813,2013-01-16 18:58:00,
2013-01-16 14:03:00,31.8,30.3,29.85,NNW,341,0.0,1.0,94,0.00,,,0.00,LWC V2.10 B1813,2013-01-16 19:03:00,
2013-01-16 14:08:00,31.8,30.3,29.84,NW,308,0.0,0.0,94,0.00,,,0.00,LWC V2.10 B1813,2013-01-16 19:08:00,
2013-01-16 14:13:00,31.8,30.3,29.85,NW,308,0.0,0.0,94,0.00,,,0.00,LWC V2.10 B1813,2013-01-16 19:13:00,
2013-01-16 14:18:00,31.9,30.6,29.85,NW,308,0.0,0.0,95,0.00,,,0.00,LWC V2.10 B1813,2013-01-16 19:18:00,
2013-01-16 14:23:00,32.0,30.5,29.84,NW,308,0.0,0.0,94,0.00,,,0.00,LWC V2.10 B1813,2013-01-16 19:23:00,
2013-01-16 14:28:00,32.2,30.7,29.84,NW,308,0.0,0.0,94,0.00,,,0.00,LWC V2.10 B1813,2013-01-16 19:28:00,
2013-01-16 14:33:00,32.3,30.8,29.84,NW,308,0.0,0.0,94,0.00,,,0.00,LWC V2.10 B1813,2013-01-16 19:33:00,
2013-01-16 14:38:00,32.4,30.9,29.83,NW,308,0.0,0.0,94,0.00,,,0.00,LWC V2.10 B1813,2013-01-16 19:38:00,
2013-01-16 14:43:00,32.4,30.9,29.84,NW,308,0.0,0.0,94,0.00,,,0.00,LWC V2.10 B1813,2013-01-16 19:43:00,
2013-01-16 14:48:00,32.4,30.9,29.84,NW,308,0.0,0.0,94,0.00,,,0.00,LWC V2.10 B1813,2013-01-16 19:48:00,
2013-01-16 14:53:00,32.4,30.9,29.84,NW,308,0.0,0.0,94,0.00,,,0.00,LWC V2.10 B1813,2013-01-16 19:53:00,
2013-01-16 14:58:00,32.1,30.6,29.84,NW,308,0.0,0.0,94,0.00,,,0.00,LWC V2.10 B1813,2013-01-16 19:58:00,
2013-01-16 15:03:00,32.1,30.6,29.85,NW,308,0.0,0.0,94,0.00,,,0.00,LWC V2.10 B1813,2013-01-16 20:03:00,
2013-01-16 15:08:00,32.0,30.5,29.84,NW,308,0.0,0.0,94,0.00,,,0.00,LWC V2.10 B1813,2013-01-16 20:08:00,
2013-01-16 15:13:00,31.9,30.6,29.83,NW,308,0.0,0.0,95,0.00,,,0.00,LWC V2.10 B1813,2013-01-16 20:13:00,
2013-01-16 15:18:00,31.9,30.6,29.83,NW,308,0.0,0.0,95,0.00,,,0.00,LWC V2.10 B1813,2013-01-16 20:18:00,
2013-01-16 15:23:00,31.9,30.6,29.83,NW,308,0.0,0.0,95,0.00,,,0.00,LWC V2.10 B1813,2013-01-16 20:23:00,
2013-01-16 15:28:00,32.0,30.7,29.83,NW,308,0.0,0.0,95,0.00,,,0.00,LWC V2.10 B1813,2013-01-16 20:28:00,
2013-01-16 15:33:00,32.0,30.7,29.83,NW,308,0.0,0.0,95,0.00,,,0.00,LWC V2.10 B1813,2013-01-16 20:33:00,
2013-01-16 15:38:00,32.0,30.7,29.83,NW,308,0.0,0.0,95,0.00,,,0.00,LWC V2.10 B1813,2013-01-16 20:38:00,
2013-01-16 15:43:00,32.1,30.8,29.83,NW,308,0.0,0.0,95,0.00,,,0.00,LWC V2.10 B1813,2013-01-16 20:43:00,
2013-01-16 15:48:00,32.1,31.1,29.83,NW,308,0.0,0.0,96,0.00,,,0.00,LWC V2.10 B1813,2013-01-16 20:48:00,
2013-01-16 15:53:00,32.1,31.1,29.83,NW,308,0.0,0.0,96,0.00,,,0.00,LWC V2.10 B1813,2013-01-16 20:53:00,
2013-01-16 15:58:00,32.0,31.0,29.83,NW,308,0.0,0.0,96,0.00,,,0.00,LWC V2.10 B1813,2013-01-16 20:58:00,
2013-01-16 16:03:00,31.8,30.8,29.83,NW,308,0.0,0.0,96,0.00,,,0.00,LWC V2.10 B1813,2013-01-16 21:03:00,
2013-01-16 16:08:00,-999.0,-99.9,-100.00,North,-999,-999.0,0.0,-999,-99.99,,,0.00,LWC V2.10 B1813,2013-01-16 21:08:00,
2013-01-16 16:13:00,31.6,30.6,29.83,ESE,106,0.0,0.0,96,0.00,,,0.00,LWC V2.10 B1813,2013-01-16 21:13:00,
2013-01-16 16:18:00,31.6,30.6,29.83,ESE,106,0.0,0.0,96,0.00,,,0.00,LWC V2.10 B1813,2013-01-16 21:18:00,
2013-01-16 16:23:00,31.6,30.6,29.82,ESE,106,0.0,0.0,96,0.00,,,0.00,LWC V2.10 B1813,2013-01-16 21:23:00,
2013-01-16 16:28:00,31.4,30.4,29.82,ESE,119,0.0,0.0,96,0.00,,,0.00,LWC V2.10 B1813,2013-01-16 21:28:00,
2013-01-16 16:33:00,31.4,30.4,29.83,ESE,114,0.0,0.0,96,0.00,,,0.00,LWC V2.10 B1813,2013-01-16 21:33:00,
2013-01-16 16:38:00,31.4,30.4,29.83,ESE,115,0.0,0.0,96,0.00,,,0.00,LWC V2.10 B1813,2013-01-16 21:38:00,
2013-01-16 16:43:00,31.4,30.4,29.83,ESE,114,0.0,0.0,96,0.00,,,0.00,LWC V2.10 B1813,2013-01-16 21:43:00,
2013-01-16 16:48:00,31.4,30.4,29.83,ESE,115,0.0,0.0,96,0.00,,,0.00,LWC V2.10 B1813,2013-01-16 21:48:00,
2013-01-16 16:53:00,31.3,30.3,29.83,ESE,114,0.0,0.0,96,0.00,,,0.00,LWC V2.10 B1813,2013-01-16 21:53:00,
2013-01-16 16:58:00,31.3,30.3,29.82,ESE,115,0.0,0.0,96,0.00,,,0.00,LWC V2.10 B1813,2013-01-16 21:58:00,
2013-01-16 17:03:00,31.2,30.2,29.82,ESE,115,0.0,0.0,96,0.00,,,0.00,LWC V2.10 B1813,2013-01-16 22:03:00,
2013-01-16 17:08:00,31.0,30.0,29.81,ESE,114,0.0,0.0,96,0.00,,,0.00,LWC V2.10 B1813,2013-01-16 22:08:00,
2013-01-16 17:13:00,30.9,29.9,29.82,ESE,114,0.0,0.0,96,0.00,,,0.00,LWC V2.10 B1813,2013-01-16 22:13:00,
2013-01-16 17:18:00,30.8,29.8,29.82,ESE,115,0.0,0.0,96,0.00,,,0.00,LWC V2.10 B1813,2013-01-16 22:18:00,
2013-01-16 17:23:00,30.8,29.8,29.82,ESE,115,0.0,0.0,96,0.00,,,0.00,LWC V2.10 B1813,2013-01-16 22:23:00,
2013-01-16 17:28:00,30.7,29.7,29.82,ESE,115,0.0,0.0,96,0.00,,,0.00,LWC V2.10 B1813,2013-01-16 22:28:00,
2013-01-16 17:33:00,30.6,29.6,29.81,ESE,115,0.0,0.0,96,0.00,,,0.00,LWC V2.10 B1813,2013-01-16 22:33:00,
2013-01-16 17:38:00,30.5,29.5,29.81,ESE,115,0.0,0.0,96,0.00,,,0.00,LWC V2.10 B1813,2013-01-16 22:38:00,
2013-01-16 17:43:00,30.4,29.4,29.82,ESE,115,0.0,0.0,96,0.00,,,0.00,LWC V2.10 B1813,2013-01-16 22:43:00,
2013-01-16 17:48:00,30.3,29.3,29.82,ESE,114,0.0,0.0,96,0.00,,,0.00,LWC V2.10 B1813,2013-01-16 22:48:00,
2013-01-16 17:53:00,30.3,29.6,29.81,ESE,115,0.0,0.0,97,0.00,,,0.00,LWC V2.10 B1813,2013-01-16 22:53:00,
2013-01-16 17:58:00,30.3,29.6,29.81,ESE,114,0.0,0.0,97,0.00,,,0.00,LWC V2.10 B1813,2013-01-16 22:58:00,
2013-01-16 18:03:00,30.2,29.5,29.80,ESE,114,0.0,0.0,97,0.00,,,0.00,LWC V2.10 B1813,2013-01-16 23:03:00,
2013-01-16 18:08:00,30.3,29.6,29.81,ESE,114,0.0,0.0,97,0.00,,,0.00,LWC V2.10 B1813,2013-01-16 23:08:00,
2013-01-16 18:13:00,30.3,29.6,29.80,ESE,114,0.0,0.0,97,0.00,,,0.00,LWC V2.10 B1813,2013-01-16 23:13:00,
2013-01-16 18:18:00,30.3,29.6,29.80,ESE,115,0.0,0.0,97,0.00,,,0.00,LWC V2.10 B1813,2013-01-16 23:18:00,
2013-01-16 18:23:00,30.4,29.7,29.81,ESE,113,0.0,0.0,97,0.00,,,0.00,LWC V2.10 B1813,2013-01-16 23:23:00,
2013-01-16 18:28:00,30.5,29.8,29.81,ESE,114,0.0,0.0,97,0.00,,,0.00,LWC V2.10 B1813,2013-01-16 23:28:00,
2013-01-16 18:33:00,30.5,29.8,29.81,ESE,113,0.0,0.0,97,0.00,,,0.00,LWC V2.10 B1813,2013-01-16 23:33:00,
2013-01-16 18:38:00,30.5,29.8,29.81,NE,44,0.0,0.0,97,0.00,,,0.00,LWC V2.10 B1813,2013-01-16 23:38:00,
2013-01-16 18:43:00,30.5,29.8,29.81,NE,44,0.0,0.0,97,0.00,,,0.00,LWC V2.10 B1813,2013-01-16 23:43:00,
2013-01-16 18:48:00,30.5,29.8,29.81,NE,45,0.0,0.0,97,0.00,,,0.00,LWC V2.10 B1813,2013-01-16 23:48:00,
2013-01-16 18:53:00,30.5,29.8,29.81,NE,45,0.0,0.0,97,0.00,,,0.00,LWC V2.10 B1813,2013-01-16 23:53:00,
2013-01-16 18:58:00,30.5,29.8,29.81,NE,45,0.0,0.0,97,0.00,,,0.00,LWC V2.10 B1813,2013-01-16 23:58:00,
2013-01-16 19:03:00,30.6,29.9,29.81,NE,45,0.0,0.0,97,0.00,,,0.00,LWC V2.10 B1813,2013-01-17 00:03:00,
2013-01-16 19:08:00,30.5,29.8,29.81,ENE,61,0.0,0.0,97,0.00,,,0.00,LWC V2.10 B1813,2013-01-17 00:08:00,
2013-01-16 19:13:00,30.6,29.9,29.81,ENE,63,0.0,0.0,97,0.00,,,0.00,LWC V2.10 B1813,2013-01-17 00:13:00,
2013-01-16 19:18:00,30.5,29.8,29.81,ENE,63,0.0,0.0,97,0.00,,,0.00,LWC V2.10 B1813,2013-01-17 00:18:00,
2013-01-16 19:23:00,30.5,29.8,29.82,ENE,62,0.0,0.0,97,0.00,,,0.00,LWC V2.10 B1813,2013-01-17 00:23:00,
2013-01-16 19:28:00,30.5,29.8,29.81,ENE,62,0.0,0.0,97,0.00,,,0.00,LWC V2.10 B1813,2013-01-17 00:28:00,
2013-01-16 19:33:00,30.5,29.8,29.81,ENE,63,0.0,0.0,97,0.00,,,0.00,LWC V2.10 B1813,2013-01-17 00:33:00,
2013-01-16 19:38:00,30.5,29.8,29.81,ENE,62,0.0,0.0,97,0.00,,,0.00,LWC V2.10 B1813,2013-01-17 00:38:00,
2013-01-16 19:43:00,30.5,29.8,29.81,ENE,63,0.0,0.0,97,0.00,,,0.00,LWC V2.10 B1813,2013-01-17 00:43:00,
2013-01-16 19:48:00,30.5,29.8,29.81,ENE,63,0.0,0.0,97,0.00,,,0.00,LWC V2.10 B1813,2013-01-17 00:48:00,
2013-01-16 19:53:00,30.5,29.8,29.81,ENE,63,0.0,0.0,97,0.00,,,0.00,LWC V2.10 B1813,2013-01-17 00:53:00,
2013-01-16 19:58:00,30.5,30.0,29.81,ENE,62,0.0,0.0,98,0.00,,,0.00,LWC V2.10 B1813,2013-01-17 00:58:00,
2013-01-16 20:03:00,30.5,30.0,29.81,ENE,63,0.0,0.0,98,0.00,,,0.00,LWC V2.10 B1813,2013-01-17 01:03:00,
2013-01-16 20:08:00,30.5,30.0,29.81,ENE,62,0.0,0.0,98,0.00,,,0.00,LWC V2.10 B1813,2013-01-17 01:08:00,
2013-01-16 20:13:00,30.5,30.0,29.81,ENE,62,0.0,0.0,98,0.00,,,0.00,LWC V2.10 B1813,2013-01-17 01:13:00,
2013-01-16 20:18:00,30.5,30.0,29.81,ENE,63,0.0,0.0,98,0.00,,,0.00,LWC V2.10 B1813,2013-01-17 01:18:00,
2013-01-16 20:23:00,30.5,30.0,29.81,ENE,63,0.0,0.0,98,0.00,,,0.00,LWC V2.10 B1813,2013-01-17 01:23:00,
2013-01-16 20:28:00,30.6,30.1,29.81,ENE,62,0.0,0.0,98,0.00,,,0.00,LWC V2.10 B1813,2013-01-17 01:28:00,
2013-01-16 20:33:00,30.6,30.1,29.81,ENE,62,0.0,0.0,98,0.00,,,0.00,LWC V2.10 B1813,2013-01-17 01:33:00,
2013-01-16 20:38:00,30.6,30.1,29.82,ESE,108,0.0,0.0,98,0.00,,,0.00,LWC V2.10 B1813,2013-01-17 01:38:00,
2013-01-16 20:43:00,30.6,30.1,29.81,ESE,108,0.0,0.0,98,0.00,,,0.00,LWC V2.10 B1813,2013-01-17 01:43:00,
2013-01-16 20:48:00,30.6,30.1,29.81,ESE,108,0.0,0.0,98,0.00,,,0.00,LWC V2.10 B1813,2013-01-17 01:48:00,
2013-01-16 20:53:00,30.6,30.1,29.81,ESE,108,0.0,0.0,98,0.00,,,0.00,LWC V2.10 B1813,2013-01-17 01:53:00,
2013-01-16 20:58:00,30.6,30.1,29.81,ESE,107,0.0,0.0,98,0.00,,,0.00,LWC V2.10 B1813,2013-01-17 01:58:00,
2013-01-16 21:03:00,30.6,30.1,29.80,ESE,108,0.0,0.0,98,0.00,,,0.00,LWC V2.10 B1813,2013-01-17 02:03:00,
2013-01-16 21:08:00,30.6,30.1,29.80,ESE,108,0.0,0.0,98,0.00,,,0.00,LWC V2.10 B1813,2013-01-17 02:08:00,
2013-01-16 21:18:00,30.5,30.0,29.80,ESE,108,0.0,0.0,98,0.00,,,0.00,LWC V2.10 B1813,2013-01-17 02:18:00,
2013-01-16 21:23:00,30.5,30.0,29.80,ESE,108,0.0,0.0,98,0.00,,,0.00,LWC V2.10 B1813,2013-01-17 02:23:00,
2013-01-16 21:28:00,30.5,30.0,29.80,ESE,108,0.0,0.0,98,0.00,,,0.00,LWC V2.10 B1813,2013-01-17 02:28:00,
2013-01-16 21:33:00,30.5,30.0,29.80,ESE,108,0.0,0.0,98,0.00,,,0.00,LWC V2.10 B1813,2013-01-17 02:33:00,
2013-01-16 21:38:00,30.5,30.0,29.80,ESE,108,0.0,0.0,98,0.00,,,0.00,LWC V2.10 B1813,2013-01-17 02:38:00,
2013-01-16 21:43:00,30.5,30.0,29.80,ESE,107,0.0,0.0,98,0.00,,,0.00,LWC V2.10 B1813,2013-01-17 02:43:00,
2013-01-16 21:48:00,30.5,30.0,29.80,ESE,107,0.0,0.0,98,0.00,,,0.00,LWC V2.10 B1813,2013-01-17 02:48:00,
2013-01-16 21:53:00,30.5,30.0,29.80,ESE,108,0.0,0.0,98,0.00,,,0.00,LWC V2.10 B1813,2013-01-17 02:53:00,
2013-01-16 21:58:00,30.5,30.0,29.80,ESE,108,0.0,0.0,98,0.00,,,0.00,LWC V2.10 B1813,2013-01-17 02:58:00,
2013-01-16 22:03:00,30.5,30.0,29.80,ESE,107,0.0,0.0,98,0.00,,,0.00,LWC V2.10 B1813,2013-01-17 03:03:00,
2013-01-16 22:08:00,30.5,30.0,29.80,ESE,107,0.0,0.0,98,0.00,,,0.00,LWC V2.10 B1813,2013-01-17 03:08:00,
2013-01-16 22:13:00,30.5,30.0,29.80,ESE,108,0.0,0.0,98,0.00,,,0.00,LWC V2.10 B1813,2013-01-17 03:13:00,
2013-01-16 22:18:00,30.5,30.0,29.80,ESE,108,0.0,0.0,98,0.00,,,0.00,LWC V2.10 B1813,2013-01-17 03:18:00,
2013-01-16 22:23:00,30.4,29.9,29.80,ESE,108,0.0,0.0,98,0.00,,,0.00,LWC V2.10 B1813,2013-01-17 03:23:00,
2013-01-16 22:28:00,30.4,29.9,29.80,ESE,108,0.0,0.0,98,0.00,,,0.00,LWC V2.10 B1813,2013-01-17 03:28:00,
2013-01-16 22:33:00,30.4,29.9,29.80,SE,136,0.0,0.0,98,0.00,,,0.00,LWC V2.10 B1813,2013-01-17 03:33:00,
2013-01-16 22:38:00,30.5,30.0,29.79,ESE,122,0.0,0.0,98,0.00,,,0.00,LWC V2.10 B1813,2013-01-17 03:38:00,
2013-01-16 22:43:00,30.5,30.0,29.80,ESE,122,0.0,0.0,98,0.00,,,0.00,LWC V2.10 B1813,2013-01-17 03:43:00,
2013-01-16 22:48:00,30.5,30.0,29.80,ESE,121,0.0,0.0,98,0.00,,,0.00,LWC V2.10 B1813,2013-01-17 03:48:00,
2013-01-16 22:53:00,30.5,30.0,29.80,SE,125,0.0,0.0,98,0.00,,,0.00,LWC V2.10 B1813,2013-01-17 03:53:00,
2013-01-16 22:58:00,30.5,30.0,29.80,SE,124,0.0,0.0,98,0.00,,,0.00,LWC V2.10 B1813,2013-01-17 03:58:00,
2013-01-16 23:03:00,30.5,30.0,29.79,SE,129,0.0,0.0,98,0.00,,,0.00,LWC V2.10 B1813,2013-01-17 04:03:00,
2013-01-16 23:08:00,30.5,30.0,29.80,SE,128,0.0,0.0,98,0.00,,,0.00,LWC V2.10 B1813,2013-01-17 04:08:00,
2013-01-16 23:13:00,30.5,30.0,29.80,SE,129,0.0,0.0,98,0.00,,,0.00,LWC V2.10 B1813,2013-01-17 04:13:00,
2013-01-16 23:18:00,30.5,30.0,29.80,SSW,201,0.0,0.0,98,0.00,,,0.00,LWC V2.10 B1813,2013-01-17 04:18:00,
2013-01-16 23:23:00,30.5,30.0,29.80,SSW,200,0.0,0.0,98,0.00,,,0.00,LWC V2.10 B1813,2013-01-17 04:23:00,
2013-01-16 23:28:00,30.5,30.0,29.80,SSW,200,0.0,0.0,98,0.00,,,0.00,LWC V2.10 B1813,2013-01-17 04:28:00,
2013-01-16 23:33:00,30.5,30.0,29.80,SSW,200,0.0,0.0,98,0.00,,,0.00,LWC V2.10 B1813,2013-01-17 04:33:00,
2013-01-16 23:38:00,30.5,30.0,29.80,SSW,198,0.0,0.0,98,0.00,,,0.00,LWC V2.10 B1813,2013-01-17 04:38:00,
2013-01-16 23:43:00,30.5,30.0,29.80,SSE,157,0.0,0.0,98,0.00,,,0.00,LWC V2.10 B1813,2013-01-17 04:43:00,
2013-01-16 23:48:00,30.5,30.0,29.80,SSE,168,0.0,0.0,98,0.00,,,0.00,LWC V2.10 B1813,2013-01-17 04:48:00,
2013-01-16 23:53:00,30.4,29.7,29.80,SE,139,0.0,0.0,97,0.00,,,0.00,LWC V2.10 B1813,2013-01-17 04:53:00,
2013-01-16 23:58:00,30.3,29.6,29.79,ESE,123,0.0,0.0,97,0.00,,,0.00,LWC V2.10 B1813,2013-01-17 04:58:00,